sat.trackr.live / text

‹ back to catalog

ONEWEB-0247

NORAD 48777 · 2021-045L

PAYLOAD ACTIVE UNKNOWN

§ Identity

Operator
Country
UK
Launch date
2021-05-28
Launch site
VOSTO
Launch vehicle
Mass (kg)
RCS (m²)

Purposes: comms

External: N2YO · Heavens-Above · Gunter

§ Orbital elements

Epoch: 2026-09-14T08:42:05.438880Z

Period
109.46 min
Inclination
87.8973°
Eccentricity
0.0002597
Mean motion
13.15547457 rev/d
Perigee alt
1,199.8 km
Apogee alt
1,203.7 km
Semi-major
7,579.9 km
B*
-2.0246e-4
RAAN
241.4291°
Arg perigee
70.1841°
Mean anomaly
289.9569°
Rev number
25,613

§ Raw data

ONEWEB-02471 48777U 21045L   26257.36256295 -.00000063  00000+0 -20246-3 0  99922 48777  87.8973 241.4291 0002597  70.1841 289.9569 13.15547457256131

JSON: /api/v1/satellites/48777 · /tle

For live sub-satellite position, see the globe view (requires WebGL).

§ Visibility from observer

Set your observer location to see the next 7 days of passes ≥ 10°. The values pass through the URL so the page stays shareable.

No JS? Fill the form by hand. The geolocation button needs JavaScript.